Flag for U.S.A. Weather past 2 weeks in Salinas, California, U.S.A.

Now
68 °F

Sunny.


Feels Like: 68 °F
Forecast: 44 / 71 °F
Wind: 5 mph from West

Location: Salinas Municipal Airport

Current Time: Apr 18, 2015 at 12:54:12 PM

Latest Report: Apr 18, 2015 at 11:53 AM


Visibility: 10 mi

Pressure: 30.06 "Hg

Humidity: 39%

Dew point: 42 °F

Location of SalinasLocation

Historic Weather in Salinas — Graph

°F

Salinas temperature yesterday

Maximum temperature yesterday: 82 °F (at 12:53 PM)
Minimum temperature yesterday: 50 °F (at 1:53 AM)
Average temperature yesterday: 60 °F

Past Weeks' High & Low Weather Summary

 TemperatureHumidityPressure
High82 °F (Apr 17, 12:53 PM)86% (Apr 7, 6:53 AM)30.34 "Hg (Apr 7, 6:53 AM)
Low42 °F (Apr 6, 5:53 AM)13% (Apr 16, 1:53 PM)29.83 "Hg (Apr 7, 5:53 AM)
Average58 °F57%30.07 "Hg
* Reported Apr 3 10:02 AM — Apr 18 10:53 AM, Salinas, Weather by CustomWeather, © 2015

Note: Actual official high and low records may vary slightly from our data, if they occured in-between our weather recording intervals... More about our weather records

Advertising

Salinas weather history for previous 24 hours

 ConditionsComfort  
Time TempWeatherWind HumidityBarometerVisibility
10:53 AM
Sat, Apr 18
61 °FSunny.No wind54%30.07 "Hg9 mi
9:53 AM55 °FSunny.No wind69%30.08 "Hg7 mi
8:53 AM50 °FLow clouds.No wind80%30.09 "Hg5 mi
7:53 AM50 °FLow clouds.5 mph83%30.10 "Hg4 mi
6:53 AM49 °FFog.No wind86%30.09 "Hg4 mi
5:53 AM49 °FFog.5 mph86%30.09 "Hg4 mi
4:53 AM50 °FLow clouds.No wind83%30.08 "Hg5 mi
3:53 AM51 °FLow clouds.5 mph83%30.08 "Hg6 mi
2:53 AM51 °FLow clouds.No wind83%30.09 "Hg6 mi
1:53 AM52 °FLow clouds.3 mph80%30.10 "Hg7 mi
12:53 AM51 °FLow clouds.3 mph86%30.11 "Hg7 mi
11:53 PM
Fri, Apr 17
52 °FLow clouds.6 mph83%30.12 "Hg7 mi
10:53 PM52 °FLow clouds.8 mph83%30.11 "Hg7 mi
9:53 PM53 °FClear.10 mph80%30.11 "Hg8 mi
8:53 PM56 °FClear.9 mph75%30.09 "Hg8 mi
7:53 PM59 °FSunny.7 mph64%30.08 "Hg9 mi
6:53 PM63 °FSunny.9 mph54%30.07 "Hg9 mi
5:53 PM65 °FSunny.9 mph51%30.08 "Hg10 mi
4:53 PM67 °FSunny.14 mph42%30.07 "Hg10 mi
3:53 PM70 °FSunny.13 mph39%30.07 "Hg10 mi
2:53 PM70 °FSunny.14 mph38%30.08 "Hg10 mi
1:53 PM74 °FSunny.20 mph33%30.07 "Hg10 mi
12:53 PM82 °FSunny.8 mph16%30.08 "Hg10 mi
Weather by CustomWeather, © 2015

See weather overviewHow to use our weather pages